Flag for U.S.A. Weather past 2 weeks in Sidney, Montana, U.S.A.

7 °F


Feels Like: 7 °F
Forecast: 3 / 24 °F
Wind: No wind

Location: Sidney-Richland

Current Time: Nov 30, 2015 at 3:18:05 AM

Latest Report: Nov 30, 2015 at 2:55 AM

Visibility: 10 mi

Pressure: 30.08 "Hg (27.82 "Hg at 591m altitude)

Humidity: 85%

Dew point: 3 °F

Location of SidneyLocation

Historic Weather in Sidney — Graph


Sidney temperature yesterday

Maximum temperature yesterday: 25 °F (at 2:55 PM)
Minimum temperature yesterday: 0 °F (at 4:55 AM)
Average temperature yesterday: 9 °F

Past Weeks' High & Low Weather Summary

High61 °F (Nov 15, 2:35 PM)100% (Nov 16, 5:35 AM)30.59 "Hg (Nov 16, 5:35 AM)
Low-6 °F (Nov 27, 4:35 AM)25% (Nov 18, 2:35 PM)29.07 "Hg (Nov 18, 6:15 AM)
Average23 °F68%29.98 "Hg
* Reported Nov 15 2:15 AM — Nov 30 2:15 AM, Sidney, Weather by CustomWeather, © 2015

Note: Actual official high and low records may vary slightly from our data, if they occured in-between our weather recording intervals... More about our weather records


Sidney weather history for previous 24 hours

Time TempWeatherWind HumidityBarometerVisibility
2:15 AM
Mon, Nov 30
3 °FClear.No wind78%30.08 "Hg10 mi
1:55 AM7 °FClear.No wind100%30.09 "Hg10 mi
1:35 AM7 °FClear.No wind92%30.08 "Hg10 mi
12:55 AM9 °FClear.No wind78%30.07 "Hg10 mi
12:15 AM7 °FClear.5 mph85%30.08 "Hg10 mi
11:55 PM
Sun, Nov 29
5 °FClear.3 mph78%30.09 "Hg10 mi
11:35 PM7 °FClear.No wind92%30.08 "Hg10 mi
10:55 PM7 °FClear.3 mph66%30.09 "Hg10 mi
10:35 PM7 °FClear.No wind66%30.09 "Hg10 mi
10:15 PM10 °FClear.No wind92%30.10 "Hg10 mi
9:55 PM7 °FClear.No wind100%30.11 "Hg10 mi
9:35 PM9 °FClear.No wind92%30.11 "Hg10 mi
8:35 PM9 °FClear.No wind78%30.12 "Hg10 mi
8:15 PM9 °FClear.No wind85%30.12 "Hg10 mi
7:55 PM9 °FClear.No wind92%30.12 "Hg10 mi
7:35 PM7 °FClear.No wind72%30.13 "Hg10 mi
6:55 PM10 °FClear.3 mph72%30.12 "Hg10 mi
6:15 PM12 °FClear.No wind85%30.12 "Hg10 mi
5:35 PM12 °FClear.6 mph85%30.12 "Hg10 mi
5:15 PM12 °FClear.3 mph85%30.13 "Hg10 mi
4:55 PM16 °FPassing clouds.No wind79%30.13 "Hg10 mi
4:35 PM19 °FPassing clouds.No wind73%30.13 "Hg10 mi
3:55 PM19 °FPartly sunny.6 mph73%30.13 "Hg10 mi
3:35 PM21 °FScattered clouds.6 mph68%30.13 "Hg10 mi
2:55 PM25 °FOvercast.6 mph59%30.15 "Hg10 mi
2:35 PM23 °FPartly sunny.5 mph63%30.14 "Hg10 mi
2:15 PM23 °FOvercast.7 mph63%30.14 "Hg10 mi
1:55 PM23 °FScattered clouds.7 mph63%30.14 "Hg10 mi
1:35 PM23 °FPassing clouds.7 mph63%30.14 "Hg10 mi
1:15 PM21 °FScattered clouds.6 mph68%30.15 "Hg10 mi
12:55 PM19 °FPartly sunny.5 mph73%30.16 "Hg10 mi
12:35 PM21 °FPassing clouds.7 mph68%30.17 "Hg10 mi
12:15 PM19 °FSunny.5 mph68%30.17 "Hg10 mi
11:55 AM19 °FSunny.7 mph68%30.18 "Hg10 mi
11:35 AM18 °FSunny.5 mph68%30.19 "Hg10 mi
11:15 AM18 °FSunny.7 mph68%30.19 "Hg10 mi
10:55 AM16 °FSunny.8 mph73%30.20 "Hg10 mi
10:35 AM14 °FSunny.8 mph79%30.21 "Hg10 mi
10:15 AM12 °FSunny.7 mph85%30.21 "Hg10 mi
9:55 AM10 °FSunny.7 mph85%30.21 "Hg10 mi
9:35 AM10 °FSunny.3 mph85%30.21 "Hg10 mi
9:15 AM9 °FSunny.No wind78%30.22 "Hg10 mi
8:55 AM7 °FSunny.7 mph78%30.22 "Hg10 mi
8:35 AM5 °FSunny.8 mph85%30.22 "Hg10 mi
8:15 AM3 °FSunny.8 mph100%30.22 "Hg10 mi
7:55 AM1 °FSunny.3 mph85%30.22 "Hg10 mi
7:35 AM1 °FSunny.9 mph85%30.21 "Hg10 mi
7:15 AM1 °FClear.6 mph100%30.22 "Hg10 mi
6:55 AM0 °FClear.6 mph78%30.22 "Hg10 mi
6:35 AM1 °FClear.6 mph78%30.22 "Hg10 mi
6:15 AM1 °FClear.7 mph85%30.21 "Hg10 mi
5:55 AM1 °FClear.3 mph100%30.21 "Hg10 mi
5:35 AM1 °FClear.5 mph71%30.21 "Hg10 mi
5:15 AM1 °FClear.3 mph92%30.21 "Hg10 mi
4:55 AM0 °FClear.No wind71%30.21 "Hg10 mi
4:35 AM1 °FClear.No wind92%30.22 "Hg10 mi
4:15 AM1 °FClear.No wind71%30.22 "Hg10 mi
3:55 AM1 °FClear.7 mph92%30.22 "Hg10 mi
3:35 AM3 °FClear.5 mph92%30.22 "Hg10 mi
3:15 AM1 °FClear.8 mph71%30.22 "Hg10 mi
Weather by CustomWeather, © 2015

See weather overviewHow to use our weather pages